When you browse on this site, cookies collect data to enhance your experience and personalize the content and advertising you see.
Visit our Privacy Policy to learn more. By continuing to use the site, you agree to this use of cookies and data.
  • In Hungary
  • List of Countries
  • For 7 days
  • Water Temperature
  • Satellite Maps
  • Weather Map
  • News
  • Weather Widgets
  • user-avatar
    Login

    Hourly Weather Tihinichi

    Today, 16 November, Friday

    Time Temperature Precipitation Wind Pressure Humidity
    00:00 -3°C° 0 mm 2 mps 764 mmHg 92%
    01:00 -3°C° 0 mm 2 mps 765 mmHg 91%
    02:00 -5°C° 0 mm 2 mps 765 mmHg 88%
    03:00 -5°C° 0 mm 2 mps 766 mmHg 87%
    04:00 -5°C° 0 mm 2 mps 766 mmHg 85%
    05:00 -5°C° 0 mm 2 mps 766 mmHg 84%
    06:00 -5°C° 0 mm 2 mps 766 mmHg 82%
    07:00 -5°C° 0 mm 2 mps 767 mmHg 81%
    08:00 -5°C° 0 mm 2 mps 767 mmHg 79%
    09:00 -4°C° 0 mm 2 mps 767 mmHg 74%
    10:00 -3°C° 0 mm 2 mps 768 mmHg 69%
    11:00 -1°C° 0 mm 3 mps 768 mmHg 64%
    12:00 -1°C° 0 mm 2 mps 768 mmHg 64%
    13:00 +1°C° 0 mm 2 mps 768 mmHg 65%
    14:00 +1°C° 0 mm 2 mps 768 mmHg 65%
    15:00 -1°C° 0 mm 2 mps 768 mmHg 69%
    16:00 -3°C° 0 mm 2 mps 768 mmHg 73%
    17:00 -5°C° 0 mm 3 mps 768 mmHg 77%
    18:00 -4°C° 0 mm 2 mps 768 mmHg 76%
    19:00 -4°C° 0 mm 2 mps 768 mmHg 75%
    20:00 -5°C° 0 mm 2 mps 768 mmHg 74%
    21:00 -5°C° 0 mm 2 mps 768 mmHg 72%
    22:00 -5°C° 0 mm 2 mps 768 mmHg 70%
    23:00 -5°C° 0 mm 2 mps 768 mmHg 68%

    Tomorrow, 17 November, Saturday

    Time Temperature Precipitation Wind Pressure Humidity
    00:00 -5°C° 0 mm 2 mps 768 mmHg 67%
    01:00 -5°C° 0 mm 2 mps 768 mmHg 65%
    02:00 -5°C° 0 mm 2 mps 768 mmHg 63%
    03:00 -6°C° 0 mm 2 mps 768 mmHg 62%
    04:00 -6°C° 0 mm 2 mps 768 mmHg 61%
    05:00 -6°C° 0 mm 2 mps 768 mmHg 60%
    06:00 -6°C° 0 mm 2 mps 768 mmHg 59%
    07:00 -6°C° 0 mm 2 mps 768 mmHg 58%
    08:00 -6°C° 0 mm 2 mps 768 mmHg 58%
    09:00 -2°C° 0 mm 1 mps 767 mmHg 54%
    10:00 -1°C° 0 mm 1 mps 767 mmHg 51%
    11:00 +1°C° 0 mm 1 mps 767 mmHg 47%
    12:00 +1°C° 0 mm 1 mps 767 mmHg 49%
    13:00 +2°C° 0 mm 1 mps 766 mmHg 50%
    14:00 +1°C° 0 mm 0 mps 766 mmHg 51%
    15:00 +1°C° 0 mm 1 mps 765 mmHg 53%
    16:00 -1°C° 0 mm 1 mps 764 mmHg 55%
    17:00 -2°C° 0 mm 1 mps 764 mmHg 57%
    18:00 -2°C° 0 mm 1 mps 763 mmHg 57%
    19:00 -2°C° 0 mm 1 mps 763 mmHg 57%
    20:00 -3°C° 0 mm 2 mps 763 mmHg 57%
    21:00 -3°C° 0 mm 2 mps 762 mmHg 58%
    22:00 -3°C° 0 mm 2 mps 761 mmHg 59%
    23:00 -3°C° 0 mm 2 mps 761 mmHg 59%

    Day after tomorrow, 18 November, Sunday

    Time Temperature Precipitation Wind Pressure Humidity
    00:00 -4°C° 0 mm 3 mps 760 mmHg 62%
    01:00 -4°C° 0 mm 3 mps 759 mmHg 65%
    02:00 -5°C° 0 mm 3 mps 759 mmHg 68%
    03:00 -4°C° 0 mm 3 mps 758 mmHg 72%
    04:00 -4°C° 0 mm 3 mps 757 mmHg 75%
    05:00 -3°C° 0 mm 4 mps 756 mmHg 79%
    06:00 -2°C° 0 mm 3 mps 755 mmHg 82%
    07:00 -1°C° 0 mm 3 mps 754 mmHg 85%
    08:00 -1°C° 0 mm 3 mps 754 mmHg 89%
    09:00 0°C° 0.1 mm 3 mps 753 mmHg 90%
    10:00 0°C° 0.1 mm 3 mps 753 mmHg 90%
    11:00 +1°C° 0.1 mm 3 mps 753 mmHg 91%
    12:00 +1°C° 0.1 mm 3 mps 752 mmHg 92%
    13:00 +1°C° 0.1 mm 3 mps 752 mmHg 92%
    14:00 +2°C° 0.1 mm 2 mps 752 mmHg 92%
    15:00 +2°C° 0.1 mm 2 mps 751 mmHg 94%
    16:00 +2°C° 0.1 mm 2 mps 751 mmHg 95%
    17:00 +1°C° 0.1 mm 2 mps 751 mmHg 97%
    18:00 +1°C° 0.2 mm 2 mps 750 mmHg 97%
    19:00 +2°C° 0.2 mm 1 mps 750 mmHg 97%
    20:00 +2°C° 0.2 mm 1 mps 750 mmHg 97%
    21:00 +2°C° 0.1 mm 1 mps 750 mmHg 97%
    22:00 +2°C° 0.1 mm 1 mps 750 mmHg 97%
    23:00 +2°C° 0.1 mm 1 mps 750 mmHg 97%

    19 November, Monday

    Time Temperature Precipitation Wind Pressure Humidity
    00:00 +2°C° 0.2 mm 1 mps 750 mmHg 97%
    01:00 +2°C° 0.2 mm 1 mps 751 mmHg 97%
    02:00 +2°C° 0.2 mm 1 mps 751 mmHg 97%
    03:00 +1°C° 0.1 mm 1 mps 751 mmHg 97%
    04:00 +1°C° 0.1 mm 1 mps 751 mmHg 97%
    05:00 +1°C° 0.1 mm 1 mps 751 mmHg 97%
    06:00 -1°C° 0.1 mm 2 mps 751 mmHg 97%
    07:00 -1°C° 0.1 mm 2 mps 751 mmHg 97%
    08:00 -1°C° 0.1 mm 2 mps 751 mmHg 96%
    09:00 -1°C° 0.2 mm 2 mps 752 mmHg 96%
    10:00 +1°C° 0.2 mm 2 mps 752 mmHg 95%
    11:00 +1°C° 0.2 mm 2 mps 753 mmHg 94%
    12:00 +1°C° 0.1 mm 2 mps 753 mmHg 93%
    13:00 +1°C° 0.1 mm 2 mps 753 mmHg 93%
    14:00 +1°C° 0.1 mm 2 mps 753 mmHg 93%
    15:00 +1°C° 0.1 mm 2 mps 753 mmHg 93%
    16:00 -1°C° 0.1 mm 2 mps 754 mmHg 93%
    17:00 -1°C° 0.1 mm 3 mps 754 mmHg 94%
    18:00 -1°C° 0.1 mm 3 mps 754 mmHg 93%
    19:00 -1°C° 0.1 mm 3 mps 754 mmHg 93%
    20:00 -2°C° 0.1 mm 3 mps 755 mmHg 93%
    21:00 -2°C° 0 mm 3 mps 755 mmHg 92%
    22:00 -4°C° 0 mm 3 mps 755 mmHg 91%
    23:00 -4°C° 0 mm 3 mps 756 mmHg 90%

    20 November, Tuesday

    Time Temperature Precipitation Wind Pressure Humidity
    00:00 -5°C° 0 mm 3 mps 756 mmHg 89%
    01:00 -5°C° 0 mm 3 mps 756 mmHg 88%
    02:00 -6°C° 0 mm 3 mps 756 mmHg 88%
    03:00 -6°C° 0 mm 3 mps 756 mmHg 88%
    04:00 -5°C° 0 mm 3 mps 756 mmHg 87%
    05:00 -5°C° 0 mm 3 mps 756 mmHg 87%
    06:00 -5°C° 0 mm 3 mps 756 mmHg 89%
    07:00 -5°C° 0 mm 4 mps 756 mmHg 90%
    08:00 -4°C° 0 mm 4 mps 756 mmHg 91%
    09:00 -4°C° 0.1 mm 4 mps 755 mmHg 91%
    10:00 -3°C° 0.1 mm 4 mps 755 mmHg 90%
    11:00 -2°C° 0.1 mm 4 mps 755 mmHg 90%
    12:00 -2°C° 0 mm 4 mps 755 mmHg 89%
    13:00 -2°C° 0 mm 4 mps 755 mmHg 88%
    14:00 -1°C° 0 mm 4 mps 755 mmHg 87%
    15:00 -2°C° 0 mm 4 mps 754 mmHg 87%
    16:00 -1°C° 0 mm 3 mps 754 mmHg 88%
    17:00 -2°C° 0 mm 3 mps 754 mmHg 89%
    18:00 -2°C° 0 mm 3 mps 754 mmHg 89%
    19:00 -2°C° 0 mm 3 mps 754 mmHg 89%
    20:00 -2°C° 0 mm 3 mps 754 mmHg 90%
    21:00 -2°C° 0 mm 3 mps 754 mmHg 90%
    22:00 -2°C° 0 mm 3 mps 754 mmHg 91%
    23:00 -2°C° 0 mm 3 mps 754 mmHg 91%

    21 November, Wednesday

    Time Temperature Precipitation Wind Pressure Humidity
    00:00 -2°C° 0 mm 3 mps 754 mmHg 92%
    01:00 -2°C° 0 mm 3 mps 754 mmHg 93%
    02:00 -2°C° 0 mm 3 mps 753 mmHg 93%
    03:00 -2°C° 0 mm 3 mps 753 mmHg 93%
    04:00 -2°C° 0 mm 3 mps 753 mmHg 93%
    05:00 -2°C° 0 mm 3 mps 753 mmHg 93%
    06:00 -2°C° 0 mm 3 mps 753 mmHg 93%
    07:00 -3°C° 0 mm 4 mps 752 mmHg 92%
    08:00 -3°C° 0 mm 4 mps 752 mmHg 92%
    09:00 -2°C° 0 mm 4 mps 752 mmHg 90%
    10:00 -2°C° 0 mm 5 mps 752 mmHg 89%
    11:00 -2°C° 0 mm 5 mps 752 mmHg 87%
    12:00 -2°C° 0 mm 5 mps 751 mmHg 87%
    13:00 -2°C° 0 mm 5 mps 751 mmHg 87%
    14:00 -2°C° 0 mm 5 mps 750 mmHg 87%
    15:00 -3°C° 0 mm 6 mps 750 mmHg 87%
    16:00 -3°C° 0 mm 6 mps 750 mmHg 88%
    17:00 -4°C° 0 mm 6 mps 749 mmHg 88%
    18:00 -4°C° 0 mm 6 mps 749 mmHg 87%
    19:00 -4°C° 0 mm 6 mps 749 mmHg 87%
    20:00 -4°C° 0 mm 6 mps 749 mmHg 86%
    21:00 -4°C° 0 mm 6 mps 748 mmHg 86%
    22:00 -4°C° 0 mm 6 mps 748 mmHg 86%
    23:00 -4°C° 0 mm 6 mps 748 mmHg 86%
    Show more